Regional Weather Roundup
Issued by NWS

Home | Current Version | Previous Version | Graphics & Text | Print | Product List | Glossary On
Versions: 1 2 3 4 5 6 7 8 9 10 11 12 13 14 15 16 17 18 19 20 21 22 23 24 25 26 27 28 29 30 31 32 33 34 35 36 37 38 39 40 41 42 43 44 45 46 47 48 49 50
309
ASUS43 KDTX 082110
RWRMI
MICHIGAN HOURLY REGIONAL WEATHER ROUNDUP
NATIONAL WEATHER SERVICE DETROIT/PONTIAC MI
400 PM EST MON FEB 08 2016

NOTE: "FAIR" INDICATES FEW OR NO CLOUDS BELOW 12,000 FEET WITH NO
SIGNIFICANT WEATHER AND/OR OBSTRUCTION TO VISIBILITY.

MIZ047>049-052>055-059>063-066>070-074>076-081>083-082200-
SOUTHEAST LOWER MICHIGAN

CITY           SKY/WX    TMP DP  RH WIND       PRES   REMARKS
ADRIAN         PTSUNNY   40  27  59 NW9       29.58R WCI  34
ALMA           CLOUDY    41  27  57 W12       29.58R
ANN ARBOR      CLOUDY    41  26  55 N5        29.56R
BAD AXE        CLOUDY    39  32  74 NW5       29.56R
CARO           CLOUDY    39  30  70 W5        29.56R
DETROIT CITY   CLOUDY    41  26  55 NW5       29.56S
DETROIT        CLOUDY    42  27  55 W7        29.57S
FLINT          CLOUDY    41  30  65 W9        29.57R
GROSSE ILE     PTSUNNY   43  28  56 CALM      29.55S
HILLSDALE      CLOUDY    35  26  69 W8        29.58R WCI  28
HOWELL         CLOUDY    39  29  68 NW7       29.56R WCI  34

CITY           SKY/WX    TMP DP  RH WIND       PRES   REMARKS
JACKSON        CLOUDY    38  26  62 W14       29.57R WCI  30
LAMBERTVILLE   CLOUDY    41  27  58 W8        29.58R
LANSING        CLOUDY    40  26  57 NW9       29.58R WCI  34
LAPEER         CLOUDY    39  29  69 NW3       29.56R
MASON          PTSUNNY   40  25  56 W12       29.57R WCI  32
MONROE         CLOUDY    41  29  61 W6        29.56R
MT. CLEMENS    CLOUDY    40  27  59 NW7       29.54R
PONTIAC        CLOUDY    39  26  59 W6        29.54S WCI  35
PORT HOPE        N/A     34  33  96 CALM      29.55R
PORT HURON     RAIN      36  34  93 W5        29.56S WCI  32
TRI CITIES     CLOUDY    41  29  62 SW9       29.57R
MIDLAND        FAIR      41  26  54 NW5       29.56S
TROY           CLOUDY    41  28  58 W8        29.57S
SAGINAW HB     CLOUDY    41  32  70 W7        29.56S
$$
MIZ043>046-050>051-056>058-064>065-071>073-077>080-082200-
SOUTHWEST LOWER MICHIGAN

CITY           SKY/WX    TMP DP  RH WIND       PRES   REMARKS
BATTLE CREEK   CLOUDY    37  27  67 SW7       29.60R WCI  32
BENTON HARBOR  CLOUDY    33  29  85 W9        29.64R WCI  25
BIG RAPIDS     CLOUDY    37  27  65 NW6       29.58R WCI  33
COLDWATER      CLOUDY    37  28  68 W8        29.59S WCI  31
FREMONT        CLOUDY    36  30  79 CALM      29.58S
HOLLAND        CLOUDY    36  32  85 W10       29.61S WCI  28
GRAND RAPIDS   PTSUNNY   40  29  64 W13       29.59R WCI  32
IONIA          CLOUDY    39  26  60 SW3       29.57S
KALAMAZOO      CLOUDY    36  27  69 W9        29.61R WCI  29
LUDINGTON      MOSUNNY   36  32  85 W3        29.60S
MARSHALL       MOSUNNY   37  26  65 W6        29.58S WCI  32
MOUNT PLEASANT MOSUNNY   41  25  52 W8        29.56S
MUSKEGON       CLOUDY    38  30  73 W12       29.61R WCI  30
SOUTH HAVEN    CLOUDY    34  32  92 NW10      29.63R WCI  26
$$
MIZ016>042-082200-
NORTHERN LOWER MICHIGAN

CITY           SKY/WX    TMP DP  RH WIND       PRES   REMARKS
ALPENA         CLOUDY    37  31  78 SE3       29.57R
BEAVER ISLAND  CLOUDY    32  27  83 NW12      29.62R WCI  23
BELLAIRE       CLOUDY    39  31  71 NW6       29.59R WCI  35
CADILLAC       CLOUDY    37  26  65 NW8       29.55R WCI  30
CHARLEVOIX     CLOUDY    34  32  93 N9G18     29.63R WCI  26
FRANKFORT      CLOUDY    35  32  88 N8        29.60R WCI  29
GAYLORD        CLOUDY    39  27  62 VRB5      29.55R
GRAYLING       PTSUNNY   38  26  62 N6        29.56R WCI  33
HARBOR SPRINGS CLOUDY    35  32  88 NW8       29.59R WCI  29
HOUGHTON LAKE  MOSUNNY   40  26  57 CALM      29.55R
MANISTEE       CLOUDY    37  28  70 W7        29.60S WCI  32
OSCODA         CLOUDY    38  32  80 CALM      29.56R
PELLSTON       CLOUDY    35  32  88 NW8       29.59S WCI  29
ROGERS CITY    FOG       34  32  94 CALM      29.59R VSB 1/2
TRAVERSE CITY  CLOUDY    39  30  70 N8        29.58R WCI  33
$$
MIZ007>008-015-082200-
EASTERN UPPER MICHIGAN

CITY           SKY/WX    TMP DP  RH WIND       PRES   REMARKS
KINROSS        CLOUDY    36  36 100 E5        29.59R WCI  32
MACKINAC ISLAN CLOUDY    37  32  82 E3        29.58S
NEWBERRY       CLOUDY    28  24  85 NW12G18   29.62R WCI  18
S. S. MARIE    CLOUDY    36  32  85 CALM      29.59R
MUNISING         N/A     22  17  81 NW16G30   29.70R WCI   8
$$
MIZ004>006-011>014-085-082200-
CENTRAL UPPER MICHIGAN

CITY           SKY/WX    TMP DP  RH WIND       PRES   REMARKS
MANISTIQUE     CLOUDY    27  21  78 NW17G26   29.64R WCI  14
ESCANABA       CLOUDY    27  18  69 N13G18    29.67R WCI  16
MENOMINEE      CLOUDY    27  19  74 N9        29.67R WCI  17
SAWYER-GWINN   LGT SNOW  18  14  86 N13       29.67R WCI   4
$$
MIZ001>003-009>011-084-082200-
WESTERN UPPER MICHIGAN

CITY           SKY/WX    TMP DP  RH WIND       PRES   REMARKS
IRON MOUNTAIN  MIX PCPN  21  12  68 NW18G26   29.67R WCI   6
HOUGHTON       LGT SNOW  14   7  73 NW15      29.73R WCI  -1
COPPER HARBOR    N/A     16  12  84 N24       29.74R WCI  -2
IRONWOOD       CLOUDY    16  12  86 NW15G22   29.76R VSB 3/4 WCI   1
$$

ABBREVIATIONS USED IN REMARKS
   TC - TEMPERATURE IN CELSIUS
  WCI - WIND CHILL INDEX
   HX - HEAT INDEX
  VSB - VISIBILITY





USA.gov is the U.S. government's official web portal to all federal, state and local government web resources and services.